[[{"header":{"parameterUnit":"m.s-1","parameterCategory":1,"la1":30.2992,"la2":30.254,"lo1":-89.0895,"lo2":-89.0443,"dy":0.0025,"dx":0.0025,"nx":19,"ny":19,"refTime":"2026-03-24T21:00:00:Z","depth":0,"parameterNumber":2,"parameterNumberName":"U-component_of_WINDS"},"data":[0,0,0,-0.4267,-0.4266,-0.4232,-0.4232,-0.4199,-0.4199,0,0,0,0,0,0,0,0,0,0,0,-0.4283,-0.4283,-0.4267,-0.4266,-0.4232,-0.4232,-0.4199,-0.4199,0,0,0,0,0,0,0,0,0,0,0,-0.4283,-0.4283,-0.4283,-0.4266,-0.4232,-0.4232,-0.4199,-0.4221,0,0,0,0,0,0,0,0,0,0,-0.4253,-0.4273,-0.4283,-0.4283,-0.4266,-0.4232,-0.4232,-0.4222,-0.422,-0.4219,0,-0.422,0,-0.4209,-0.4197,-0.4197,0,0,0,-0.4262,-0.4275,-0.4261,-0.4283,-0.4266,-0.4232,-0.4246,-0.4221,-0.4218,-0.4216,-0.4219,-0.4218,-0.4208,-0.4197,-0.4197,-0.4209,-0.421,0,0,-0.4264,-0.428,-0.4262,-0.4259,-0.4264,-0.4247,-0.4245,-0.4219,-0.4223,-0.4219,-0.4217,-0.4208,-0.4197,-0.4197,-0.4209,-0.4209,0,0,0,-0.4272,-0.4282,-0.4267,-0.4261,-0.4254,-0.4246,-0.4244,-0.4224,-0.4218,-0.4216,-0.4207,-0.4197,-0.4197,-0.4209,-0.4209,-0.4239,0,0,0,-0.4273,-0.4287,-0.4268,-0.4278,-0.4255,-0.4238,-0.425,-0.422,-0.4217,-0.4208,-0.4197,-0.4196,-0.4208,-0.4209,-0.4238,-0.4251,0,0,0,-0.4283,-0.4288,-0.4285,-0.4279,-0.4265,-0.4238,-0.4231,-0.4219,-0.4212,-0.4197,-0.4196,-0.4208,-0.4209,-0.4236,-0.4249,-0.4261,0,0,0,-0.4299,-0.4311,-0.4286,-0.4295,-0.4265,-0.4257,-0.4231,-0.4224,-0.4215,-0.4197,-0.4208,-0.4209,-0.4236,-0.4247,-0.4259,-0.4274,-0.4282,0,0,-0.4323,-0.4314,-0.4319,-0.4295,-0.4296,-0.4261,-0.4266,-0.4242,-0.4226,-0.4216,-0.4216,-0.4238,-0.4249,-0.426,-0.4316,-0.4322,0,0,0,-0.4332,-0.4336,-0.4333,-0.4325,-0.4308,-0.4295,-0.4268,-0.426,-0.4251,-0.4224,-0.4245,-0.425,-0.4256,-0.4263,-0.4268,-0.4273,-0.4212,-0.4212,-0.4212,-0.439,-0.4369,-0.4376,-0.4352,-0.4345,-0.4319,-0.4313,-0.4297,-0.4277,-0.4282,-0.428,-0.4316,-0.4324,-0.4328,-0.4334,-0.4285,-0.4285,-0.4285,-0.4285,-0.4425,-0.4428,-0.4402,-0.44,-0.4379,-0.4377,-0.4353,-0.434,-0.4336,-0.4315,-0.432,-0.4301,-0.4335,-0.4339,-0.4287,-0.4287,-0.4286,-0.4286,-0.4286,-0.4461,-0.4459,-0.4449,-0.4438,-0.4433,-0.4408,-0.4406,-0.4386,-0.4367,-0.4371,-0.4368,-0.4367,-0.4366,-0.4371,-0.4371,-0.4371,-0.4371,-0.4371,-0.4371,-0.4503,-0.4491,-0.4492,-0.4476,-0.4471,-0.446,-0.4436,-0.443,-0.4418,-0.4404,-0.4404,-0.4385,-0.4342,-0.4332,-0.4373,-0.4373,-0.4373,-0.4373,-0.4373,-0.4548,-0.4536,-0.4537,-0.4531,-0.4513,-0.451,-0.4485,-0.4475,-0.4467,-0.4467,-0.4447,-0.4418,-0.4408,-0.4404,-0.4396,-0.4451,-0.4451,-0.4451,-0.4451,-0.458,-0.4573,-0.4572,-0.4564,-0.4555,-0.4533,-0.4538,-0.452,-0.45,-0.4494,-0.4483,-0.447,-0.4467,-0.4459,-0.4453,-0.4446,-0.4512,-0.4512,-0.4512,-0.4608,-0.46,-0.4607,-0.4586,-0.4571,-0.4559,-0.4563,-0.4557,-0.4531,-0.4514,-0.449,-0.4487,-0.4467,-0.4461,-0.4443,-0.4435,-0.4421,0,0]},{"header":{"parameterUnit":"m.s-1","parameterCategory":1,"la1":30.2992,"la2":30.254,"lo1":-89.0895,"lo2":-89.0443,"dy":0.0025,"dx":0.0025,"nx":19,"ny":19,"refTime":"2026-03-24T21:00:00:Z","depth":0,"parameterNumber":3,"parameterNumberName":"V-component_of_WINDS"},"data":[0,0,0,2.9032,2.9031,2.9009,2.9008,2.8979,2.8979,0,0,0,0,0,0,0,0,0,0,0,2.904,2.904,2.9032,2.9031,2.9009,2.9008,2.8979,2.8979,0,0,0,0,0,0,0,0,0,0,0,2.904,2.904,2.904,2.9031,2.9009,2.9008,2.8979,2.8996,0,0,0,0,0,0,0,0,0,0,2.9018,2.9028,2.904,2.904,2.9031,2.9009,2.9008,2.8997,2.8995,2.899,0,2.8987,0,2.8983,2.8977,2.8977,0,0,0,2.903,2.9029,2.9022,2.904,2.9031,2.9009,2.9018,2.8996,2.8994,2.8987,2.8987,2.8986,2.8982,2.8977,2.8977,2.8958,2.8958,0,0,2.9031,2.9037,2.9024,2.9021,2.9026,2.9019,2.9018,2.8994,2.8994,2.8987,2.8985,2.8982,2.8977,2.8976,2.8958,2.8958,0,0,0,2.9036,2.9038,2.9031,2.9022,2.9018,2.9019,2.9017,2.8995,2.8992,2.8985,2.8981,2.8976,2.8976,2.8958,2.8958,2.8964,0,0,0,2.9036,2.904,2.9031,2.9034,2.9019,2.9006,2.9018,2.8994,2.8991,2.8982,2.8976,2.8976,2.8958,2.8958,2.8964,2.8965,0,0,0,2.9041,2.9041,2.9038,2.9035,2.9026,2.9007,2.9003,2.8993,2.8989,2.8977,2.8976,2.8958,2.8958,2.8964,2.8965,2.8962,0,0,0,2.9047,2.9043,2.9039,2.9032,2.9026,2.9011,2.9003,2.8991,2.8982,2.8976,2.8958,2.8958,2.8963,2.8965,2.8962,2.8961,2.8962,0,0,2.9045,2.9043,2.9039,2.9034,2.9022,2.9014,2.9002,2.8987,2.898,2.8965,2.8964,2.8964,2.8965,2.8962,2.8961,2.8961,0,0,0,2.904,2.9037,2.9033,2.9025,2.9014,2.9005,2.8992,2.8986,2.8974,2.8974,2.8962,2.8962,2.896,2.896,2.896,2.8958,2.8958,2.8958,2.8958,2.9044,2.9037,2.9029,2.9019,2.9011,2.8998,2.899,2.898,2.8973,2.8971,2.8966,2.8966,2.8966,2.8966,2.8964,2.8965,2.8965,2.8965,2.8965,2.904,2.9034,2.9027,2.9017,2.9009,2.9,2.8986,2.8982,2.8971,2.8969,2.8967,2.8965,2.8966,2.8964,2.8965,2.8965,2.8965,2.8965,2.8965,2.9042,2.9038,2.9032,2.9021,2.9012,2.9001,2.8992,2.8984,2.8976,2.8974,2.8968,2.8968,2.8967,2.8972,2.8972,2.8972,2.8972,2.8972,2.8972,2.9046,2.9039,2.9034,2.9023,2.9017,2.9008,2.8995,2.8988,2.8978,2.8973,2.8973,2.8966,2.8968,2.8969,2.8972,2.8972,2.8972,2.8972,2.8972,2.9044,2.9043,2.9035,2.9029,2.9016,2.9008,2.8998,2.8985,2.8978,2.8974,2.8968,2.8971,2.8967,2.8967,2.8968,2.897,2.897,2.897,2.897,2.9046,2.9044,2.9033,2.9025,2.9015,2.9006,2.8995,2.8984,2.8972,2.8968,2.8966,2.8966,2.8966,2.8963,2.8962,2.8963,2.8964,2.8964,2.8964,2.9044,2.9041,2.9034,2.9025,2.9014,2.9004,2.8993,2.8982,2.8969,2.8963,2.8963,2.8964,2.8963,2.8964,2.8958,2.8958,2.8958,0,0]}]]